timestamp,wind_dir_avg,wind_spd_avg,wind_spd_max_dir,wind_spd_gust,battery_voltage,lat,long
2023-05-23 00:04:00+00:00,51.0,8.65,57.0,9.64,12.41,47.59359,-54.27349
2023-05-23 00:14:00+00:00,49.0,8.6,50.0,9.82,12.33,47.59359,-54.27349
2023-05-23 00:24:00+00:00,51.0,8.36,50.0,9.52,12.33,47.59359,-54.27349
2023-05-23 00:34:00+00:00,50.0,8.47,51.0,9.42,12.33,47.59359,-54.27349
2023-05-23 00:44:00+00:00,53.0,8.27,51.0,8.92,12.33,47.59359,-54.27349
2023-05-23 00:54:00+00:00,53.0,7.44,53.0,8.5,12.33,47.59359,-54.27349
2023-05-23 01:04:00+00:00,54.0,7.95,52.0,9.06,12.33,47.59359,-54.27349
2023-05-23 01:14:00+00:00,50.0,7.92,51.0,8.99,12.33,47.59359,-54.27349
2023-05-23 01:24:00+00:00,58.0,7.38,56.0,8.55,12.33,47.59359,-54.27349
2023-05-23 01:34:00+00:00,43.0,7.1,44.0,7.98,12.33,47.59359,-54.27349
2023-05-23 01:44:00+00:00,45.0,7.94,47.0,8.6,12.33,47.59359,-54.27349
2023-05-23 01:54:00+00:00,38.0,7.13,43.0,7.88,12.33,47.59359,-54.27349
2023-05-23 02:04:00+00:00,52.0,6.8,48.0,7.72,12.33,47.59359,-54.27349
2023-05-23 02:14:00+00:00,49.0,7.13,47.0,8.85,12.25,47.59359,-54.27349
2023-05-23 02:24:00+00:00,56.0,6.59,53.0,7.29,12.25,47.59359,-54.27349
2023-05-23 02:34:00+00:00,62.0,7.46,63.0,8.03,12.25,47.59359,-54.27349
2023-05-23 02:44:00+00:00,55.0,7.92,55.0,8.5,12.25,47.59359,-54.27349
2023-05-23 02:54:00+00:00,60.0,7.38,55.0,8.62,12.25,47.59359,-54.27349
2023-05-23 03:04:00+00:00,67.0,8.38,68.0,8.97,12.25,47.59359,-54.27349
2023-05-23 03:14:00+00:00,69.0,6.68,62.0,7.42,12.25,47.59359,-54.27349
2023-05-23 03:24:00+00:00,64.0,6.9,71.0,8.14,12.25,47.59359,-54.27349
2023-05-23 03:34:00+00:00,52.0,7.85,52.0,8.47,12.25,47.59359,-54.27349
2023-05-23 03:44:00+00:00,58.0,8.13,57.0,9.17,12.25,47.59359,-54.27349
2023-05-23 03:54:00+00:00,60.0,7.31,59.0,8.15,12.25,47.59359,-54.27349
2023-05-23 04:04:00+00:00,55.0,7.88,52.0,8.56,12.25,47.59359,-54.27349
2023-05-23 04:14:00+00:00,49.0,6.97,48.0,8.23,12.25,47.59359,-54.27349
2023-05-23 04:24:00+00:00,44.0,7.29,46.0,8.16,12.25,47.59359,-54.27349
2023-05-23 04:34:00+00:00,45.0,8.76,46.0,9.68,12.25,47.59359,-54.27349
2023-05-23 04:44:00+00:00,47.0,8.7,42.0,10.01,12.25,47.59359,-54.27349
2023-05-23 04:54:00+00:00,38.0,8.81,37.0,9.77,12.25,47.59359,-54.27349
2023-05-23 05:04:00+00:00,39.0,8.71,40.0,9.71,12.25,47.59359,-54.27349
2023-05-23 05:14:00+00:00,45.0,8.18,37.0,10.76,12.25,47.59359,-54.27349
2023-05-23 05:24:00+00:00,63.0,8.98,60.0,10.12,12.25,47.59359,-54.27349
2023-05-23 05:34:00+00:00,63.0,7.41,63.0,8.45,12.25,47.59359,-54.27349
2023-05-23 05:44:00+00:00,57.0,8.21,58.0,9.49,12.25,47.59359,-54.27349
2023-05-23 05:54:00+00:00,55.0,7.85,59.0,9.15,12.25,47.59359,-54.27349
2023-05-23 06:04:00+00:00,53.0,9.24,52.0,10.67,12.25,47.59359,-54.27349
2023-05-23 06:14:00+00:00,62.0,8.74,60.0,10.46,12.17,47.59359,-54.27349
2023-05-23 06:24:00+00:00,61.0,9.25,57.0,10.32,12.17,47.59359,-54.27349
2023-05-23 06:34:00+00:00,61.0,7.83,59.0,9.72,12.17,47.59359,-54.27349
2023-05-23 06:44:00+00:00,43.0,9.26,45.0,10.6,12.17,47.59359,-54.27349
2023-05-23 06:54:00+00:00,49.0,10.38,58.0,13.15,12.17,47.59359,-54.27349
2023-05-23 07:04:00+00:00,56.0,9.67,55.0,11.09,12.17,47.59359,-54.27349
2023-05-23 07:14:00+00:00,50.0,10.09,49.0,11.8,12.09,47.59359,-54.27349
2023-05-23 07:24:00+00:00,48.0,10.07,47.0,10.88,12.09,47.59359,-54.27349
2023-05-23 07:34:00+00:00,47.0,10.82,51.0,12.31,12.09,47.59359,-54.27349
2023-05-23 07:44:00+00:00,49.0,9.96,50.0,11.69,12.09,47.59359,-54.27349
2023-05-23 07:54:00+00:00,42.0,9.57,37.0,10.69,12.09,47.59359,-54.27349
2023-05-23 08:04:00+00:00,45.0,10.77,40.0,11.76,12.09,47.59359,-54.27349
2023-05-23 08:14:00+00:00,45.0,9.54,50.0,11.36,12.09,47.59359,-54.27349
2023-05-23 08:24:00+00:00,43.0,10.39,44.0,11.5,12.09,47.59359,-54.27349
2023-05-23 08:34:00+00:00,40.0,10.37,40.0,11.65,12.09,47.59359,-54.27349
2023-05-23 08:44:00+00:00,42.0,11.15,39.0,12.18,12.09,47.59359,-54.27349
2023-05-23 08:54:00+00:00,46.0,11.3,45.0,12.55,12.09,47.59359,-54.27349
2023-05-23 09:04:00+00:00,40.0,10.26,37.0,11.29,12.09,47.59359,-54.27349
2023-05-23 09:14:01+00:00,46.0,11.56,49.0,12.65,12.09,47.59359,-54.27349
2023-05-23 09:24:01+00:00,48.0,10.64,44.0,11.69,12.09,47.59359,-54.27349
2023-05-23 09:34:01+00:00,48.0,10.75,43.0,11.8,12.09,47.59359,-54.27349
2023-05-23 09:44:01+00:00,50.0,10.01,50.0,11.71,12.09,47.59359,-54.27349
2023-05-23 09:54:01+00:00,48.0,10.73,53.0,12.29,12.09,47.59359,-54.27349
2023-05-23 10:04:01+00:00,51.0,9.18,48.0,10.41,12.09,47.59359,-54.27349
2023-05-23 10:14:00+00:00,50.0,11.04,50.0,13.12,12.17,47.59359,-54.27349
2023-05-23 10:24:00+00:00,53.0,11.08,58.0,13.48,12.17,47.59359,-54.27349
2023-05-23 10:34:00+00:00,50.0,11.03,51.0,13.32,12.17,47.59359,-54.27349
2023-05-23 10:44:00+00:00,49.0,10.77,53.0,12.02,12.17,47.59359,-54.27349
2023-05-23 10:54:00+00:00,52.0,10.81,54.0,12.42,12.17,47.59359,-54.27349
2023-05-23 11:04:00+00:00,48.0,10.6,45.0,11.72,12.17,47.59359,-54.27349
2023-05-23 11:14:00+00:00,47.0,10.77,50.0,12.29,12.65,47.59359,-54.27349
2023-05-23 11:24:00+00:00,47.0,11.18,50.0,12.16,12.65,47.59359,-54.27349
2023-05-23 11:34:00+00:00,48.0,9.59,47.0,10.76,12.65,47.59359,-54.27349
2023-05-23 11:44:00+00:00,47.0,10.9,44.0,11.73,12.65,47.59359,-54.27349
2023-05-23 11:54:00+00:00,46.0,10.45,48.0,11.43,12.65,47.59359,-54.27349
2023-05-23 12:04:00+00:00,48.0,8.78,47.0,10.4,12.65,47.59359,-54.27349
2023-05-23 12:14:00+00:00,48.0,10.31,48.0,11.7,13.21,47.59359,-54.27349
2023-05-23 12:24:00+00:00,45.0,9.51,41.0,11.92,13.21,47.59359,-54.27349
2023-05-23 12:34:00+00:00,46.0,10.48,53.0,11.64,13.21,47.59359,-54.27349
2023-05-23 12:44:00+00:00,43.0,10.99,38.0,12.57,13.21,47.59359,-54.27349
2023-05-23 12:54:00+00:00,44.0,10.33,41.0,11.63,13.21,47.59359,-54.27349
2023-05-23 13:04:00+00:00,47.0,10.31,49.0,11.95,13.21,47.59359,-54.27349
2023-05-23 13:14:00+00:00,47.0,10.08,50.0,11.59,13.6,47.59359,-54.27349
2023-05-23 13:24:00+00:00,43.0,10.78,41.0,12.11,13.6,47.59359,-54.27349
2023-05-23 13:34:00+00:00,43.0,10.69,42.0,11.81,13.6,47.59359,-54.27349
2023-05-23 13:44:00+00:00,46.0,11.21,41.0,12.71,13.6,47.59359,-54.27349
2023-05-23 13:54:00+00:00,45.0,10.04,43.0,11.65,13.6,47.59359,-54.27349
2023-05-23 14:04:00+00:00,48.0,10.2,50.0,11.23,13.6,47.59359,-54.27349
2023-05-23 14:14:00+00:00,45.0,9.72,44.0,11.57,13.68,47.59359,-54.27349
2023-05-23 14:24:00+00:00,44.0,10.31,43.0,11.16,13.68,47.59359,-54.27349
2023-05-23 14:34:00+00:00,40.0,9.97,37.0,11.48,13.68,47.59359,-54.27349
2023-05-23 14:44:00+00:00,45.0,10.08,50.0,11.04,13.68,47.59359,-54.27349
2023-05-23 14:54:00+00:00,47.0,9.81,49.0,10.87,13.68,47.59359,-54.27349
2023-05-23 15:04:00+00:00,46.0,9.85,46.0,11.1,13.68,47.59359,-54.27349
2023-05-23 15:14:00+00:00,44.0,9.53,45.0,10.43,14.32,47.59359,-54.27349
2023-05-23 15:24:00+00:00,46.0,9.04,45.0,9.95,14.32,47.59359,-54.27349
2023-05-23 15:34:00+00:00,43.0,9.28,52.0,11.52,14.32,47.59359,-54.27349
2023-05-23 15:44:00+00:00,45.0,8.6,41.0,9.69,14.32,47.59359,-54.27349
2023-05-23 15:54:00+00:00,43.0,8.95,44.0,9.55,14.32,47.59359,-54.27349
2023-05-23 16:04:00+00:00,40.0,8.88,43.0,9.9,14.32,47.59359,-54.27349
2023-05-23 16:14:00+00:00,40.0,8.98,47.0,9.77,14.16,47.59359,-54.27349
2023-05-23 16:24:00+00:00,45.0,7.9,40.0,9.13,14.16,47.59359,-54.27349
2023-05-23 16:34:00+00:00,49.0,7.19,51.0,8.14,14.16,47.59359,-54.27349
2023-05-23 16:44:00+00:00,51.0,7.8,49.0,9.04,14.16,47.59359,-54.27349
2023-05-23 16:54:00+00:00,59.0,7.73,55.0,8.93,14.16,47.59359,-54.27349
2023-05-23 17:04:00+00:00,59.0,7.76,55.0,8.71,14.16,47.59359,-54.27349
2023-05-23 17:14:00+00:00,63.0,7.54,64.0,8.46,14.4,47.59359,-54.27349
2023-05-23 17:24:00+00:00,67.0,7.73,68.0,8.28,14.4,47.59359,-54.27349
2023-05-23 17:34:00+00:00,70.0,8.27,69.0,8.88,14.4,47.59359,-54.27349
2023-05-23 17:44:00+00:00,70.0,7.94,66.0,8.71,14.4,47.59359,-54.27349
2023-05-23 17:54:00+00:00,69.0,8.0,64.0,8.88,14.4,47.59359,-54.27349
2023-05-23 18:04:00+00:00,70.0,9.3,68.0,13.17,14.4,47.59359,-54.27349
2023-05-23 18:14:00+00:00,71.0,7.64,66.0,9.13,13.84,47.59359,-54.27349
2023-05-23 18:24:00+00:00,71.0,10.29,74.0,12.75,13.84,47.59359,-54.27349
2023-05-23 18:34:00+00:00,72.0,7.29,75.0,9.34,13.84,47.59359,-54.27349
2023-05-23 18:44:00+00:00,68.0,7.47,70.0,10.16,13.84,47.59359,-54.27349
2023-05-23 18:54:00+00:00,74.0,7.44,74.0,12.69,13.84,47.59359,-54.27349
2023-05-23 19:04:00+00:00,71.0,7.41,77.0,11.92,13.84,47.59359,-54.27349
2023-05-23 19:14:00+00:00,70.0,7.44,68.0,8.28,13.68,47.59359,-54.27349
2023-05-23 19:24:00+00:00,74.0,6.06,74.0,8.36,13.68,47.59359,-54.27349
2023-05-23 19:34:00+00:00,74.0,5.12,71.0,6.78,13.68,47.59359,-54.27349
2023-05-23 19:44:00+00:00,73.0,5.28,62.0,6.99,13.68,47.59359,-54.27349
2023-05-23 19:54:00+00:00,78.0,5.08,71.0,7.67,13.68,47.59359,-54.27349
2023-05-23 20:04:00+00:00,75.0,5.41,55.0,7.71,13.68,47.59359,-54.27349
2023-05-23 20:14:00+00:00,82.0,5.57,95.0,7.57,13.76,47.59359,-54.27349
2023-05-23 20:24:00+00:00,76.0,5.06,69.0,7.13,13.76,47.59359,-54.27349
2023-05-23 20:34:00+00:00,76.0,4.88,68.0,6.85,13.76,47.59359,-54.27349
2023-05-23 20:44:00+00:00,79.0,5.17,76.0,6.81,13.76,47.59359,-54.27349
2023-05-23 20:54:00+00:00,76.0,4.95,64.0,6.98,13.76,47.59359,-54.27349
2023-05-23 21:04:00+00:00,78.0,5.44,70.0,7.82,13.76,47.59359,-54.27349
2023-05-23 21:14:00+00:00,73.0,5.04,65.0,6.86,13.68,47.59359,-54.27349
2023-05-23 21:24:00+00:00,79.0,5.44,83.0,7.22,13.68,47.59359,-54.27349
2023-05-23 21:34:00+00:00,72.0,6.38,65.0,8.34,13.68,47.59359,-54.27349
2023-05-23 21:44:00+00:00,79.0,5.72,81.0,7.38,13.68,47.59359,-54.27349
2023-05-23 21:54:00+00:00,74.0,5.31,65.0,7.74,13.68,47.59359,-54.27349
2023-05-23 22:04:00+00:00,68.0,6.14,63.0,7.32,13.68,47.59359,-54.27349
2023-05-23 22:14:00+00:00,73.0,6.01,76.0,7.9,13.44,47.59359,-54.27349
2023-05-23 22:24:00+00:00,78.0,5.76,60.0,7.92,13.44,47.59359,-54.27349
2023-05-23 22:34:00+00:00,72.0,6.4,74.0,7.48,13.44,47.59359,-54.27349
2023-05-23 22:44:00+00:00,73.0,5.24,66.0,6.74,13.44,47.59359,-54.27349
2023-05-23 22:54:00+00:00,74.0,5.96,70.0,7.29,13.44,47.59359,-54.27349
2023-05-23 23:04:00+00:00,71.0,6.67,76.0,9.22,13.44,47.59359,-54.27349
2023-05-23 23:14:00+00:00,69.0,6.21,71.0,7.54,12.97,47.59359,-54.27349
2023-05-23 23:24:00+00:00,68.0,5.99,66.0,7.33,12.97,47.59359,-54.27349
2023-05-23 23:34:00+00:00,70.0,6.29,68.0,7.5,12.97,47.59359,-54.27349
2023-05-23 23:44:00+00:00,72.0,6.03,63.0,6.59,12.97,47.59359,-54.27349
2023-05-23 23:54:00+00:00,69.0,6.4,68.0,7.01,12.97,47.59359,-54.27349
